THOR ABLESTAR DEB, 15558

Orbit data source: Space-Track

THOR ABLESTAR DEB, 15558 is space debris in LEO originally from a launch on Thu, 29 Jun 1961 UTC launched from the Air Force Eastern Test Range (AFETR). Debris objects in space refer to the collection of defunct objects orbiting the Earth. Examples of debris include non-operational satellites, rocket bodies, and fragments generated from explosions, collisions, or faulty payload assembly.

Loading next visibility...
Identifier
15558, 1961-015LE
Orbit
LEO
Country
Flag of USUS
Related business
Manufacturer
Unknown
Mission
Spacecraft
Bus & Motor
Unknown
Mass
Unknown
Launch date (UTC)
1961-06-29 (65 years ago)
Launch vehicle
Unknown
Launch site
Air Force Eastern Test Range (AFETR)
Object type
Payload
Rocket body
Debris
Shape & HBR
Unknown shape, 0.1 m
Radar Cross Section
Small (<0.1 m²)

Expand to show TLE details & history
Last TLE update: 23 hours ago

TLE from 23 hours ago
0 THOR ABLESTAR DEB
1 15558U 61015LE  26193.42263161  .00000017  00000-0  65582-4 0  9991
2 15558  65.5875 120.8517 0042507  63.4251 297.1172 14.04933907127824
Epoch: 2026-07-12T10:08Z
TLE epoch observation values (Epoch: 2026-07-12T10:08:35.371Z)
Latitude
0.00003°
Longitude
38.38261°
Altitude
864.801 km
Speed
7.428 km/s
True Right ascension
08h 03m 24s
True Declination
0° 00' 00"
Sunlit
Object was in daylight at epoch
Visualization orbit readout
Latitude
Unknown
Longitude
Unknown
Altitude
Unknown
Speed
Unknown
Apparent Right ascension
Unknown
Apparent Declination
Unknown
Sunlit
N/A
Visualization observer readout
Local Sidereal Time
21:57:04
Azimuth
Unknown
Elevation
Unknown
Doppler factor
Unknown
Orbital elements
Apogee altitude
906.117 km
Perigee altitude
844.453 km
Semi-major axis
7,253.422 km
Eccentricity
0.00425
Inclination
65.5875°
RAAN
120.8517°
Arg. of periapsis
63.4251°
True anomaly
296.6826°
Mean anomaly
297.1172°
Eccentric anomaly
296.90001°
Mean motion
3.51341 °/min
Orbital period
102.46 mins
BSTAR
0.000065582
Loading maneuver chart data...
Computing Atmospheric mass density...

Documentation

Showing up to 5 results
|